Wind_Speed
26 26 27 27 27 30 32 33 33 31 29 29 27 24 22 20 20 22 22 22 22 20 19 19 19 18 19 20 21 21 23 23
26 27 27 28 29 31 32 33 31 30 29 30 26 24 22 23 22 22 22 22 22 21 19 20 20 19 20 22 23 23 24 26
24 25 27 29 30 32 32 31 31 30 29 29 26 24 24 25 25 25 25 25 25 23 22 22 22 21 21 23 24 25 25 26
26 26 27 28 30 31 32 31 32 32 30 28 28 27 26 27 28 29 29 28 28 27 26 25 26 25 25 25 25 27 29 29
29 30 29 30 31 33 33 34 34 34 33 31 30 31 30 30 31 32 32 32 31 30 31 30 30 30 29 29 29 29 30 30
27 29 30 31 31 31 32 32 33 33 34 33 33 33 32 33 34 34 35 35 35 35 35 34 34 34 33 32 32 32 32 33
26 27 28 29 30 31 32 33 34 34 34 34 34 34 34 35 36 36 37 37 38 38 39 39 39 39 38 37 36 36 38 39
25 26 28 29 29 31 32 33 33 33 33 33 32 33 34 35 37 38 39 39 40 41 42 43 43 43 42 42 42 43 44 44
30 34 34 32 30 31 32 33 34 33 32 32 33 34 36 38 40 42 41 43 45 46 46 46 45 46 49 50 51 50 46 45
34 38 39 38 39 37 37 37 36 35 35 36 37 38 39 41 38 39 39 38 42 47 49 51 51 50 48 48 48 48 47 47
33 39 42 44 42 42 42 41 41 41 40 40 41 41 41 42 42 43 42 42 42 42 42 44 45 47 48 49 49 49 48 46
33 39 44 45 41 40 43 45 44 43 41 40 40 41 41 43 45 45 46 45 44 44 46 48 48 49 51 52 50 50 49 47
33 41 46 43 33 34 32 32 36 37 37 39 40 41 43 44 45 47 48 48 46 47 51 50 52 53 55 52 53 52 50 47
33 37 41 41 42 40 33 34 35 36 39 39 40 42 44 46 48 50 51 51 51 50 53 54 55 57 56 56 56 54 50 47
37 42 44 44 42 39 33 36 41 41 41 46 46 47 47 48 49 51 53 54 55 53 54 56 56 55 55 54 52 51 47 45
39 43 47 49 49 45 42 41 39 41 47 47 48 50 50 52 53 56 54 53 55 54 52 53 50 49 50 49 46 45 44 44
46 49 52 52 52 53 41 44 41 44 43 43 46 46 43 45 50 55 51 49 49 49 52 50 45 42 42 43 43 43 43 40
51 55 52 57 56 45 41 43 40 46 45 42 44 43 48 50 51 52 52 52 51 48 46 44 40 40 40 42 43 38 34 33
49 56 52 37 37 44 44 38 46 46 43 42 42 45 47 50 52 50 51 54 53 45 44 41 38 40 41 39 34 31 29 28
46 35 43 40 47 55 60 45 45 48 41 41 39 45 46 47 49 45 46 47 44 42 39 39 42 40 36 31 27 25 26 24
Wind_Direction
265 264 266 267 270 274 277 282 288 291 293 294 291 290 289 287 282 283 281 278 272 268 269 271 273 277 279 281 281 281 283 283
265 265 265 269 272 274 279 285 286 286 289 290 287 287 284 281 279 277 277 277 278 279 278 278 279 282 284 286 286 287 285 285
271 271 271 272 274 277 279 279 279 281 285 285 281 280 280 277 278 278 276 276 275 274 273 275 276 277 276 277 280 281 281 280
276 274 274 276 277 278 277 276 278 280 277 276 274 273 272 273 276 278 277 276 274 273 271 270 271 272 273 274 276 277 277 276
281 279 277 277 276 277 277 279 279 276 275 274 270 271 271 272 274 276 278 277 273 270 268 268 269 271 272 274 274 274 276 276
279 280 281 280 279 278 278 278 278 277 279 280 275 275 276 275 275 278 280 280 278 275 271 270 270 272 274 275 277 278 279 279
279 280 281 280 280 280 279 278 278 279 278 277 276 275 274 273 274 276 277 278 278 277 276 277 278 279 279 280 279 279 281 281
279 279 279 279 278 277 276 275 273 273 275 276 275 274 273 274 276 277 276 277 277 277 277 278 280 282 283 282 282 283 283 283
279 281 277 271 273 276 278 277 276 275 275 274 272 271 270 271 274 278 278 276 276 277 277 277 278 280 281 281 281 283 282 282
286 289 287 281 271 269 268 269 271 273 274 275 275 275 274 275 279 282 278 284 283 280 281 282 283 282 282 282 282 281 282 282
284 282 281 281 278 270 271 272 272 274 276 275 275 274 273 273 276 280 281 283 283 282 282 282 282 284 287 285 284 283 282 282
279 277 276 275 272 272 269 273 276 277 277 278 278 278 277 275 276 278 281 283 286 288 285 284 283 284 285 287 285 284 281 281
273 267 269 273 274 274 271 271 269 272 274 275 276 276 277 277 278 279 281 283 283 285 287 284 285 285 285 284 285 287 283 283
269 257 264 264 266 269 273 279 274 280 281 279 278 278 278 278 279 282 283 284 283 283 285 286 285 285 285 285 287 285 283 280
265 257 262 264 263 262 266 276 276 276 280 276 276 276 278 279 279 279 280 280 282 282 280 285 289 288 285 285 285 283 281 280
268 262 263 263 263 261 260 259 275 275 274 276 275 277 279 282 282 282 283 282 284 285 285 286 287 284 284 284 281 281 280 283
272 265 267 267 260 262 257 268 272 281 273 275 274 274 275 279 279 283 285 286 285 284 286 286 284 279 280 280 279 277 280 278
270 267 268 262 249 252 264 258 275 287 276 271 271 271 274 276 281 284 286 287 291 292 287 283 274 279 278 277 280 278 274 271
268 258 248 249 257 278 264 282 286 279 275 267 270 274 274 278 280 281 284 288 288 286 278 272 273 276 274 277 272 268 264 266
248 265 279 281 277 278 287 284 287 282 263 265 269 271 270 276 280 286 290 287 280 280 281 281 285 276 274 268 270 268 265 266
Height
5811 5812 5813 5813 5813 5813 5812 5810 5809 5808 5807 5805 5805 5804 5802 5801 5800 5800 5799 5798 5797 5796 5795 5795 5795 5794 5794 5793 5793 5792 5791 5792
5806 5807 5807 5808 5808 5807 5806 5805 5804 5803 5802 5800 5800 5799 5798 5797 5796 5795 5795 5794 5794 5793 5792 5792 5791 5791 5790 5790 5789 5789 5788 5788
5801 5802 5801 5802 5802 5801 5800 5800 5799 5798 5796 5795 5794 5793 5792 5792 5792 5791 5790 5789 5789 5789 5788 5787 5786 5786 5786 5786 5785 5784 5784 5783
5797 5796 5796 5796 5796 5795 5795 5794 5793 5792 5790 5789 5789 5788 5787 5786 5785 5785 5784 5783 5783 5783 5782 5781 5780 5779 5780 5779 5779 5778 5777 5777
5794 5793 5791 5791 5790 5790 5789 5788 5787 5786 5785 5784 5782 5782 5781 5780 5779 5778 5778 5777 5776 5775 5775 5774 5773 5773 5773 5772 5771 5770 5770 5770
5788 5786 5786 5785 5784 5783 5782 5781 5780 5780 5780 5779 5777 5776 5775 5774 5772 5772 5771 5770 5769 5768 5767 5766 5765 5765 5765 5764 5763 5762 5762 5761
5782 5781 5781 5780 5779 5777 5776 5775 5774 5773 5773 5772 5771 5770 5768 5767 5766 5765 5763 5762 5761 5760 5760 5759 5757 5756 5756 5755 5754 5753 5752 5751
5776 5774 5774 5773 5771 5769 5768 5767 5765 5764 5764 5764 5763 5762 5761 5760 5759 5757 5756 5754 5753 5751 5750 5750 5749 5748 5747 5746 5744 5743 5741 5740
5769 5767 5766 5765 5763 5762 5761 5759 5758 5757 5757 5756 5755 5754 5753 5752 5750 5748 5748 5747 5745 5743 5741 5739 5738 5737 5737 5736 5734 5732 5731 5730
5763 5759 5758 5757 5755 5752 5750 5749 5749 5749 5748 5747 5746 5745 5744 5743 5742 5740 5738 5737 5735 5733 5731 5730 5728 5727 5726 5724 5723 5722 5720 5719
5755 5750 5746 5745 5745 5744 5742 5740 5739 5738 5738 5738 5736 5735 5735 5733 5732 5730 5729 5728 5726 5724 5721 5719 5717 5717 5716 5714 5712 5711 5709 5707
5746 5742 5738 5735 5734 5734 5733 5732 5731 5730 5729 5728 5727 5727 5726 5724 5722 5721 5720 5719 5717 5714 5711 5708 5706 5705 5704 5702 5701 5700 5698 5696
5736 5731 5728 5728 5727 5724 5722 5720 5719 5719 5719 5718 5717 5716 5716 5714 5712 5711 5709 5708 5707 5704 5701 5697 5694 5693 5692 5690 5689 5687 5687 5685
5725 5721 5718 5717 5715 5713 5710 5708 5707 5707 5707 5706 5704 5704 5704 5702 5701 5700 5698 5697 5695 5693 5690 5686 5682 5681 5680 5679 5677 5676 5675 5673
5714 5710 5704 5702 5702 5699 5698 5698 5697 5695 5695 5695 5693 5692 5692 5691 5690 5689 5687 5685 5683 5682 5679 5675 5671 5668 5668 5666 5665 5664 5662 5661
5700 5696 5692 5689 5686 5686 5684 5684 5685 5684 5686 5684 5683 5682 5682 5681 5679 5677 5675 5674 5672 5670 5667 5664 5660 5657 5656 5655 5653 5653 5651 5650
5687 5681 5678 5676 5672 5671 5669 5670 5671 5674 5675 5675 5672 5672 5672 5672 5670 5666 5664 5663 5661 5658 5656 5653 5650 5647 5645 5644 5643 5643 5642 5641
5674 5670 5666 5659 5653 5654 5654 5658 5658 5660 5662 5661 5661 5661 5661 5660 5657 5655 5654 5651 5649 5647 5644 5642 5640 5638 5635 5633 5633 5633 5632 5631
5661 5654 5642 5633 5634 5639 5644 5642 5645 5646 5647 5649 5650 5650 5649 5648 5646 5644 5642 5641 5639 5636 5633 5631 5629 5628 5625 5623 5622 5623 5624 5623
5637 5629 5628 5623 5630 5633 5634 5634 5633 5635 5636 5639 5638 5638 5638 5636 5634 5633 5632 5629 5628 5626 5622 5620 5619 5617 5616 5615 5614 5614 5615 5615